timestamp,wind_dir_avg,wind_spd_avg,wind_spd_max_dir,wind_spd_gust,battery_voltage,lat,long
2023-02-23 00:04:00+00:00,336.0,10.43,338.0,12.13,12.33,47.59359,-54.27349
2023-02-23 00:14:00+00:00,339.0,9.13,332.0,11.52,12.25,47.59359,-54.27349
2023-02-23 00:24:00+00:00,356.0,6.81,356.0,9.22,12.25,47.59359,-54.27349
2023-02-23 00:34:00+00:00,334.0,7.71,321.0,9.57,12.25,47.59359,-54.27349
2023-02-23 00:44:00+00:00,335.0,6.23,321.0,8.68,12.25,47.59359,-54.27349
2023-02-23 00:54:00+00:00,341.0,9.37,339.0,11.3,12.25,47.59359,-54.27349
2023-02-23 01:04:00+00:00,330.0,9.7,334.0,10.98,12.25,47.59359,-54.27349
2023-02-23 01:14:00+00:00,325.0,7.99,312.0,9.67,12.17,47.59359,-54.27349
2023-02-23 01:24:00+00:00,337.0,9.23,335.0,10.8,12.17,47.59359,-54.27349
2023-02-23 01:34:00+00:00,326.0,7.75,323.0,9.45,12.17,47.59359,-54.27349
2023-02-23 01:44:00+00:00,322.0,7.37,312.0,8.59,12.17,47.59359,-54.27349
2023-02-23 01:54:00+00:00,324.0,8.07,325.0,9.79,12.17,47.59359,-54.27349
2023-02-23 02:04:00+00:00,326.0,7.36,320.0,9.51,12.17,47.59359,-54.27349
2023-02-23 02:14:00+00:00,331.0,7.43,331.0,9.61,12.17,47.59359,-54.27349
2023-02-23 02:24:00+00:00,311.0,5.38,302.0,7.44,12.17,47.59359,-54.27349
2023-02-23 02:34:00+00:00,313.0,5.49,296.0,6.86,12.17,47.59359,-54.27349
2023-02-23 02:44:00+00:00,308.0,5.9,300.0,7.59,12.17,47.59359,-54.27349
2023-02-23 02:54:00+00:00,301.0,5.18,287.0,6.95,12.17,47.59359,-54.27349
2023-02-23 03:04:00+00:00,316.0,4.83,313.0,7.1,12.17,47.59359,-54.27349
2023-02-23 03:14:00+00:00,326.0,5.84,311.0,7.49,12.09,47.59359,-54.27349
2023-02-23 03:24:00+00:00,312.0,5.88,320.0,7.12,12.09,47.59359,-54.27349
2023-02-23 03:34:00+00:00,320.0,6.25,324.0,7.79,12.09,47.59359,-54.27349
2023-02-23 03:44:00+00:00,318.0,6.3,325.0,7.5,12.09,47.59359,-54.27349
2023-02-23 03:54:00+00:00,315.0,4.66,305.0,6.0,12.09,47.59359,-54.27349
2023-02-23 04:04:00+00:00,312.0,10.75,296.0,16.08,12.09,47.59359,-54.27349
2023-02-23 04:14:00+00:00,315.0,8.16,309.0,10.24,12.09,47.59359,-54.27349
2023-02-23 04:24:00+00:00,305.0,9.26,297.0,14.28,12.09,47.59359,-54.27349
2023-02-23 04:34:00+00:00,309.0,8.83,300.0,15.66,12.09,47.59359,-54.27349
2023-02-23 04:44:00+00:00,331.0,7.26,319.0,10.81,12.09,47.59359,-54.27349
2023-02-23 04:54:00+00:00,335.0,6.21,324.0,7.66,12.09,47.59359,-54.27349
2023-02-23 05:04:00+00:00,321.0,5.81,320.0,6.99,12.09,47.59359,-54.27349
2023-02-23 05:14:00+00:00,296.0,9.46,287.0,13.94,12.01,47.59359,-54.27349
2023-02-23 05:24:00+00:00,323.0,7.74,316.0,9.87,12.01,47.59359,-54.27349
2023-02-23 05:34:00+00:00,312.0,9.08,303.0,14.39,12.01,47.59359,-54.27349
2023-02-23 05:44:00+00:00,308.0,12.62,309.0,16.33,12.01,47.59359,-54.27349
2023-02-23 05:54:00+00:00,304.0,14.74,309.0,17.38,12.01,47.59359,-54.27349
2023-02-23 06:04:00+00:00,301.0,15.03,309.0,16.84,12.01,47.59359,-54.27349
2023-02-23 06:14:00+00:00,296.0,13.6,302.0,16.16,12.01,47.59359,-54.27349
2023-02-23 06:24:00+00:00,325.0,8.47,319.0,12.09,12.01,47.59359,-54.27349
2023-02-23 06:34:00+00:00,301.0,14.73,302.0,16.73,12.01,47.59359,-54.27349
2023-02-23 06:44:00+00:00,302.0,15.37,302.0,16.71,12.01,47.59359,-54.27349
2023-02-23 06:54:00+00:00,300.0,14.24,302.0,17.2,12.01,47.59359,-54.27349
2023-02-23 07:04:00+00:00,314.0,11.24,310.0,15.0,12.01,47.59359,-54.27349
2023-02-23 07:14:00+00:00,308.0,12.77,312.0,16.43,12.01,47.59359,-54.27349
2023-02-23 07:24:00+00:00,308.0,8.08,309.0,10.64,12.01,47.59359,-54.27349
2023-02-23 07:34:00+00:00,313.0,8.15,288.0,14.63,12.01,47.59359,-54.27349
2023-02-23 07:44:00+00:00,307.0,16.1,311.0,18.9,12.01,47.59359,-54.27349
2023-02-23 07:54:00+00:00,317.0,9.82,317.0,15.55,12.01,47.59359,-54.27349
2023-02-23 08:04:00+00:00,309.0,9.54,295.0,11.36,12.01,47.59359,-54.27349
2023-02-23 08:14:00+00:00,310.0,10.0,320.0,13.25,12.01,47.59359,-54.27349
2023-02-23 08:24:00+00:00,315.0,6.44,305.0,9.13,12.01,47.59359,-54.27349
2023-02-23 08:34:00+00:00,308.0,7.56,304.0,12.17,12.01,47.59359,-54.27349
2023-02-23 08:44:00+00:00,310.0,10.36,309.0,12.48,12.01,47.59359,-54.27349
2023-02-23 08:54:00+00:00,312.0,11.15,302.0,14.04,12.01,47.59359,-54.27349
2023-02-23 09:04:00+00:00,318.0,11.07,322.0,15.56,12.01,47.59359,-54.27349
2023-02-23 09:14:00+00:00,317.0,10.86,303.0,17.2,12.01,47.59359,-54.27349
2023-02-23 09:24:00+00:00,314.0,11.77,313.0,13.98,12.01,47.59359,-54.27349
2023-02-23 09:34:00+00:00,305.0,9.83,309.0,11.1,12.01,47.59359,-54.27349
2023-02-23 09:44:00+00:00,310.0,9.67,310.0,11.26,12.01,47.59359,-54.27349
2023-02-23 09:54:00+00:00,312.0,9.19,316.0,10.58,12.01,47.59359,-54.27349
2023-02-23 10:04:00+00:00,304.0,10.17,300.0,14.04,12.01,47.59359,-54.27349
2023-02-23 10:14:00+00:00,313.0,11.44,304.0,15.64,12.01,47.59359,-54.27349
2023-02-23 10:24:00+00:00,314.0,12.58,311.0,13.87,12.01,47.59359,-54.27349
2023-02-23 10:34:00+00:00,313.0,10.32,324.0,12.61,12.01,47.59359,-54.27349
2023-02-23 10:44:00+00:00,310.0,7.38,320.0,9.01,12.01,47.59359,-54.27349
2023-02-23 10:54:00+00:00,318.0,8.04,323.0,10.83,12.01,47.59359,-54.27349
2023-02-23 11:04:00+00:00,299.0,7.26,317.0,9.48,12.01,47.59359,-54.27349
2023-02-23 11:14:00+00:00,301.0,7.62,302.0,8.72,12.09,47.59359,-54.27349
2023-02-23 11:24:00+00:00,292.0,4.57,287.0,5.53,12.09,47.59359,-54.27349
2023-02-23 11:34:00+00:00,300.0,6.64,312.0,9.42,12.09,47.59359,-54.27349
2023-02-23 11:44:00+00:00,302.0,6.95,305.0,8.56,12.09,47.59359,-54.27349
2023-02-23 11:54:00+00:00,294.0,6.75,302.0,8.3,12.09,47.59359,-54.27349
2023-02-23 12:04:00+00:00,292.0,9.2,296.0,11.21,12.09,47.59359,-54.27349
2023-02-23 12:14:01+00:00,292.0,10.21,286.0,12.72,13.68,47.59359,-54.27349
2023-02-23 12:24:01+00:00,296.0,10.92,285.0,17.88,13.68,47.59359,-54.27349
2023-02-23 12:34:01+00:00,300.0,9.21,298.0,11.15,13.68,47.59359,-54.27349
2023-02-23 12:44:01+00:00,307.0,8.95,314.0,11.16,13.68,47.59359,-54.27349
2023-02-23 12:54:01+00:00,304.0,8.94,307.0,10.74,13.68,47.59359,-54.27349
2023-02-23 13:04:01+00:00,301.0,9.17,309.0,10.95,13.68,47.59359,-54.27349
2023-02-23 13:14:00+00:00,328.0,8.27,309.0,11.99,13.53,47.59359,-54.27349
2023-02-23 13:24:00+00:00,311.0,9.83,315.0,11.47,13.53,47.59359,-54.27349
2023-02-23 13:34:00+00:00,307.0,8.67,312.0,12.03,13.53,47.59359,-54.27349
2023-02-23 13:44:00+00:00,304.0,9.14,302.0,11.36,13.53,47.59359,-54.27349
2023-02-23 13:54:00+00:00,301.0,9.91,290.0,15.79,13.53,47.59359,-54.27349
2023-02-23 14:04:00+00:00,300.0,8.07,301.0,9.74,13.53,47.59359,-54.27349
2023-02-23 14:14:00+00:00,295.0,9.63,300.0,11.25,14.16,47.59359,-54.27349
2023-02-23 14:24:00+00:00,313.0,10.89,311.0,13.11,14.16,47.59359,-54.27349
2023-02-23 14:34:00+00:00,291.0,8.71,285.0,18.14,14.16,47.59359,-54.27349
2023-02-23 14:44:00+00:00,303.0,9.36,293.0,11.07,14.16,47.59359,-54.27349
2023-02-23 14:54:00+00:00,304.0,9.5,293.0,14.22,14.16,47.59359,-54.27349
2023-02-23 15:04:00+00:00,299.0,10.8,285.0,16.62,14.16,47.59359,-54.27349
2023-02-23 15:14:00+00:00,310.0,9.45,303.0,11.45,13.6,47.59359,-54.27349
2023-02-23 15:24:00+00:00,307.0,11.12,306.0,15.47,13.6,47.59359,-54.27349
2023-02-23 15:34:00+00:00,308.0,9.93,313.0,13.64,13.6,47.59359,-54.27349
2023-02-23 15:44:00+00:00,290.0,7.57,289.0,9.17,13.6,47.59359,-54.27349
2023-02-23 15:54:00+00:00,309.0,10.36,313.0,12.27,13.6,47.59359,-54.27349
2023-02-23 16:04:00+00:00,307.0,10.17,294.0,12.68,13.6,47.59359,-54.27349
2023-02-23 16:14:01+00:00,302.0,12.66,308.0,15.24,13.92,47.59359,-54.27349
2023-02-23 16:24:01+00:00,311.0,10.72,316.0,12.58,13.92,47.59359,-54.27349
2023-02-23 16:34:01+00:00,305.0,10.72,300.0,13.95,13.92,47.59359,-54.27349
2023-02-23 16:44:01+00:00,313.0,11.22,313.0,13.07,13.92,47.59359,-54.27349
2023-02-23 16:54:01+00:00,296.0,8.21,286.0,10.86,13.92,47.59359,-54.27349
2023-02-23 17:04:01+00:00,306.0,10.36,314.0,13.65,13.92,47.59359,-54.27349
2023-02-23 17:14:01+00:00,310.0,10.78,308.0,12.18,13.6,47.59359,-54.27349
2023-02-23 17:24:01+00:00,317.0,4.8,320.0,9.4,13.6,47.59359,-54.27349
2023-02-23 17:34:01+00:00,308.0,7.11,294.0,10.71,13.6,47.59359,-54.27349
2023-02-23 17:44:01+00:00,309.0,10.3,306.0,12.51,13.6,47.59359,-54.27349
2023-02-23 17:54:01+00:00,321.0,4.55,306.0,6.07,13.6,47.59359,-54.27349
2023-02-23 18:04:01+00:00,326.0,9.56,311.0,13.14,13.6,47.59359,-54.27349
2023-02-23 18:14:00+00:00,322.0,9.53,303.0,12.11,13.68,47.59359,-54.27349
2023-02-23 18:24:00+00:00,320.0,10.05,322.0,12.89,13.68,47.59359,-54.27349
2023-02-23 18:34:00+00:00,306.0,10.14,308.0,12.47,13.68,47.59359,-54.27349
2023-02-23 18:44:00+00:00,299.0,9.77,301.0,12.23,13.68,47.59359,-54.27349
2023-02-23 18:54:00+00:00,307.0,10.96,312.0,13.31,13.68,47.59359,-54.27349
2023-02-23 19:04:00+00:00,309.0,10.33,309.0,12.99,13.68,47.59359,-54.27349
2023-02-23 19:14:01+00:00,288.0,8.89,282.0,10.99,14.48,47.59359,-54.27349
2023-02-23 19:24:01+00:00,307.0,9.22,307.0,13.0,14.48,47.59359,-54.27349
2023-02-23 19:34:01+00:00,296.0,9.98,297.0,11.82,14.48,47.59359,-54.27349
2023-02-23 19:44:01+00:00,322.0,9.4,313.0,13.2,14.48,47.59359,-54.27349
2023-02-23 19:54:01+00:00,315.0,11.3,310.0,13.57,14.48,47.59359,-54.27349
2023-02-23 20:04:01+00:00,312.0,10.42,314.0,13.27,14.48,47.59359,-54.27349
2023-02-23 20:14:00+00:00,302.0,9.83,301.0,11.96,13.6,47.59359,-54.27349
2023-02-23 20:24:00+00:00,303.0,10.69,314.0,14.49,13.6,47.59359,-54.27349
2023-02-23 20:34:00+00:00,301.0,8.2,297.0,10.84,13.6,47.59359,-54.27349
2023-02-23 20:44:00+00:00,315.0,5.98,321.0,8.2,13.6,47.59359,-54.27349
2023-02-23 20:54:00+00:00,309.0,9.78,299.0,11.36,13.6,47.59359,-54.27349
2023-02-23 21:04:00+00:00,309.0,6.6,299.0,11.19,13.6,47.59359,-54.27349
2023-02-23 21:14:01+00:00,323.0,8.23,317.0,12.65,13.29,47.59359,-54.27349
2023-02-23 21:24:01+00:00,323.0,7.27,327.0,8.89,13.29,47.59359,-54.27349
2023-02-23 21:34:01+00:00,322.0,5.76,315.0,6.66,13.29,47.59359,-54.27349
2023-02-23 21:44:01+00:00,308.0,6.05,324.0,7.95,13.29,47.59359,-54.27349
2023-02-23 21:54:01+00:00,327.0,7.28,330.0,9.03,13.29,47.59359,-54.27349
2023-02-23 22:04:01+00:00,302.0,5.79,300.0,6.73,13.29,47.59359,-54.27349
2023-02-23 22:14:00+00:00,299.0,8.09,300.0,11.17,12.49,47.59359,-54.27349
2023-02-23 22:24:00+00:00,306.0,7.48,299.0,10.54,12.49,47.59359,-54.27349
2023-02-23 22:34:00+00:00,319.0,7.07,302.0,11.07,12.49,47.59359,-54.27349
2023-02-23 22:44:00+00:00,298.0,7.29,289.0,10.01,12.49,47.59359,-54.27349
2023-02-23 22:54:00+00:00,307.0,7.32,305.0,10.02,12.49,47.59359,-54.27349
2023-02-23 23:04:00+00:00,319.0,7.55,306.0,10.92,12.49,47.59359,-54.27349
2023-02-23 23:14:00+00:00,331.0,8.57,322.0,10.84,12.33,47.59359,-54.27349
2023-02-23 23:24:00+00:00,332.0,9.27,313.0,11.65,12.33,47.59359,-54.27349
2023-02-23 23:34:00+00:00,332.0,9.45,315.0,12.41,12.33,47.59359,-54.27349
2023-02-23 23:44:00+00:00,324.0,8.71,320.0,11.9,12.33,47.59359,-54.27349
2023-02-23 23:54:00+00:00,320.0,7.46,329.0,9.83,12.33,47.59359,-54.27349
